Location: Herm
(49.4830°N, 2.4500°W)
Time: 06:42:38
(UTC+01:00)

Amateur Radio Satellites - All Passes

Search period start: 17 October 2017 06:12
Search period end: 18 October 2017 06:12
Location: Herm, 49.4830°N, 2.4500°W

Satellite Date Start Highest point End Downlink Frequencies (MHz)
Time Altitude Azimuth
XW-2C 17 Oct 06:14:35 06:16:26 13° 89° (E) 06:18:16 145.795 - 145.815
RS-15 17 Oct 06:25:36 06:36:56 39° 355° (N) 06:47:54 29.354- 29.394
O/OREOS (USA 219) 17 Oct 06:34:42 06:38:54 33° 53° (NE) 06:43:03 437.305
KKS-1 17 Oct 06:47:56 06:50:24 15° 271° (W) 06:52:52 437.445
CUTE-I 17 Oct 06:50:46 06:55:29 30° 94° (E) 07:00:11 437.470
ITAMSAT 1 17 Oct 06:51:28 06:54:53 18° 305° (NW) 06:58:17 435.822/435.867
LilacSat-2 17 Oct 06:58:22 07:01:57 41° 98° (E) 07:05:31 437.200
XW-2F 17 Oct 07:01:57 07:05:29 39° 98° (E) 07:08:59 145.980 - 146.000
KAITUO 1B 17 Oct 07:07:18 07:10:44 35° 97° (E) 07:14:08 145.475/437.950
CUTE 1.7 + AOD 2 17 Oct 07:08:20 07:10:20 13° 88° (E) 07:12:19 437.475
FO-29 17 Oct 07:10:30 07:12:54 13° 48° (NE) 07:15:24 435.910
XW-2D 17 Oct 07:10:56 07:14:38 55° 100° (E) 07:18:18 145.860 - 145.880
STRAND 1 17 Oct 07:15:33 07:20:35 60° 70° (ENE) 07:25:40 437.568
NO-84 17 Oct 07:18:58 07:23:06 51° 342° (NNW) 07:27:01 435.350 FM
AO-7 17 Oct 07:19:40 07:26:11 27° 314° (NW) 07:32:41 .
SEEDS 17 Oct 07:23:48 07:25:20 12° 87° (E) 07:26:51 437.485
XW-2B 17 Oct 07:24:13 07:27:59 75° 102° (ESE) 07:31:43 145.730 - 145.750
CUBEBUG 2 17 Oct 07:26:30 07:28:58 14° 86° (E) 07:31:24 437.445
NUDT-PHONESAT 17 Oct 07:28:12 07:31:51 60° 101° (E) 07:35:27 437.300
STARS 17 Oct 07:33:04 07:34:48 12° 273° (W) 07:36:31 437.465
HO-68 17 Oct 07:37:04 07:43:30 33° 94° (E) 07:49:53 435.675
DOVE 4 17 Oct 07:37:29 07:41:38 30° 295° (WNW) 07:45:57 437.250
XW-2C 17 Oct 07:47:17 07:50:59 58° 288° (WNW) 07:54:40 145.795 - 145.815
AAUSAT CUBESAT 2 17 Oct 07:59:42 08:01:35 13° 88° (E) 08:03:28 437.432
SO-50 17 Oct 08:01:14 08:05:01 27° 117° (ESE) 08:08:51 436.795
UWE-3 17 Oct 08:12:17 08:15:52 22° 91° (E) 08:19:21 435.000/436.395/437.385
O/OREOS (USA 219) 17 Oct 08:14:06 08:18:21 37° 252° (WSW) 08:22:34 437.305
YUBILEINY 17 Oct 08:22:09 08:26:08 14° 69° (ENE) 08:30:05 435.215
TIGRISAT 17 Oct 08:23:18 08:25:03 12° 54° (NE) 08:26:49 435.000
CUTE-I 17 Oct 08:30:35 08:35:43 46° 293° (WNW) 08:40:49 437.470
XW-2A 17 Oct 08:31:03 08:34:05 30° 96° (E) 08:37:06 145.665 - 145.685
LilacSat-2 17 Oct 08:33:13 08:35:59 20° 296° (WNW) 08:38:44 437.200
XW-2F 17 Oct 08:36:36 08:39:22 20° 296° (WNW) 08:42:06 145.980 - 146.000
RS-15 17 Oct 08:40:59 08:52:49 51° 29° (NNE) 09:04:03 29.354- 29.394
KAITUO 1B 17 Oct 08:41:42 08:44:32 21° 295° (WNW) 08:47:21 145.475/437.950
CUTE 1.7 + AOD 2 17 Oct 08:42:28 08:46:40 73° 287° (WNW) 08:50:51 437.475
Oscar 11 17 Oct 08:43:36 08:46:10 15° 89° (E) 08:48:43 .
XW-2D 17 Oct 08:46:10 08:48:25 15° 299° (WNW) 08:50:39 145.860 - 145.880
FO-29 17 Oct 08:51:43 08:56:53 67° 71° (ENE) 09:02:27 435.910
STRAND 1 17 Oct 08:56:13 09:00:10 22° 269° (W) 09:04:08 437.568
PCSat 17 Oct 08:56:33 09:00:38 22° 108° (ESE) 09:04:45 145.827
NO-84 17 Oct 08:57:15 09:01:04 36° 2° (N) 09:04:38 435.350 FM
SEEDS 17 Oct 08:57:24 09:01:34 80° 287° (WNW) 09:05:44 437.485
XW-2B 17 Oct 09:00:06 09:01:37 12° 301° (WNW) 09:03:07 145.730 - 145.750
CUBEBUG 2 17 Oct 09:01:27 09:06:12 81° 286° (WNW) 09:10:49 437.445
NUDT-PHONESAT 17 Oct 09:03:20 09:05:16 14° 299° (WNW) 09:07:12 437.300
AO-73 17 Oct 09:15:03 09:19:18 43° 98° (E) 09:23:25 145.935
HO-68 17 Oct 09:24:33 09:31:37 60° 295° (WNW) 09:38:39 435.675
AAUSAT CUBESAT 2 17 Oct 09:33:25 09:37:33 72° 285° (WNW) 09:41:38 437.432
ZACube-1 17 Oct 09:34:32 09:39:01 75° 102° (ESE) 09:43:22 437.345
UNISAT 6 17 Oct 09:40:26 09:44:58 55° 71° (ENE) 09:49:35 437.425
SO-50 17 Oct 09:40:54 09:45:16 50° 317° (NW) 09:49:42 436.795
UWE-3 17 Oct 09:48:08 09:52:35 48° 290° (WNW) 09:56:53 435.000/436.395/437.385
TIGRISAT 17 Oct 09:56:16 10:00:52 71° 73° (ENE) 10:05:35 435.000
DELFI C3 17 Oct 10:03:15 10:06:23 22° 93° (E) 10:09:31 145.870
XW-2A 17 Oct 10:04:08 10:06:39 20° 295° (WNW) 10:09:08 145.665 - 145.685
Tancredo 1 17 Oct 10:08:59 10:09:05 10° 142° (SE) 10:09:11 437.200
EO-88 17 Oct 10:12:02 10:14:02 14° 90° (E) 10:16:02 145.990 - 145.960
Max Valier Satellite 17 Oct 10:12:18 10:15:01 19° 92° (E) 10:17:43 145.860
YUBILEINY 17 Oct 10:12:31 10:21:01 62° 92° (E) 10:29:34 435.215
AIST 2D 17 Oct 10:13:36 10:15:15 13° 61° (ENE) 10:16:52 435.315
Oscar 11 17 Oct 10:18:28 10:22:45 65° 287° (WNW) 10:27:00 .
CUTE 1.7 + AOD 2 17 Oct 10:21:05 10:21:44 10° 305° (NW) 10:22:22 437.475
PRISM 17 Oct 10:22:14 10:26:15 67° 72° (ENE) 10:30:18 437.425
NO-84 17 Oct 10:35:01 10:38:57 65° 24° (NNE) 10:42:32 435.350 FM
SEEDS 17 Oct 10:35:23 10:36:32 11° 304° (NW) 10:37:42 437.485
DUCHIFAT 1 17 Oct 10:37:11 10:38:07 11° 54° (NE) 10:39:01 145.980
PCSat 17 Oct 10:38:06 10:43:31 72° 308° (NW) 10:48:59 145.827
FO-29 17 Oct 10:39:02 10:42:43 19° 273° (W) 10:46:33 435.910
CUBEBUG 2 17 Oct 10:39:46 10:42:02 14° 305° (NW) 10:44:17 437.445
AO-73 17 Oct 10:51:42 10:55:18 25° 297° (WNW) 10:58:49 145.935
RS-15 17 Oct 10:54:15 11:06:14 76° 237° (WSW) 11:17:34 29.354- 29.394
ZACube-1 17 Oct 11:12:01 11:14:44 16° 302° (WNW) 11:17:23 437.345
HO-68 17 Oct 11:13:44 11:17:59 17° 317° (NW) 11:22:14 435.675
LO-87 17 Oct 11:15:03 11:15:57 11° 88° (E) 11:16:50 145.935 - 145.965
UNISAT 6 17 Oct 11:18:32 11:22:00 21° 270° (W) 11:25:32 437.425
SO-50 17 Oct 11:23:51 11:26:46 17° 340° (NNW) 11:29:42 436.795
EO-79 17 Oct 11:25:27 11:29:18 34° 67° (ENE) 11:33:12 145.935-145.965
POLYITAN 1 17 Oct 11:28:58 11:32:54 37° 68° (ENE) 11:36:53 437.675
TIGRISAT 17 Oct 11:35:12 11:38:05 16° 272° (W) 11:41:00 435.000
DELFI C3 17 Oct 11:37:35 11:41:15 37° 291° (WNW) 11:44:55 145.870
Tancredo 1 17 Oct 11:38:50 11:40:45 76° 164° (SSE) 11:42:43 437.200
EO-88 17 Oct 11:44:27 11:48:00 51° 288° (WNW) 11:51:31 145.990 - 145.960
AIST 2D 17 Oct 11:44:30 11:47:59 60° 259° (W) 11:51:29 435.315
ESTCUBE 1 17 Oct 11:45:10 11:48:23 19° 91° (E) 11:51:34 437.505/2401.250
Max Valier Satellite 17 Oct 11:45:33 11:49:00 37° 290° (WNW) 11:52:23 145.860
QB50P2 17 Oct 11:48:37 11:52:49 63° 73° (ENE) 11:57:06 145.880/145.840
NANOSAT C BR1 17 Oct 11:55:52 12:00:03 60° 72° (ENE) 12:04:17 145.865
PRISM 17 Oct 11:59:59 12:01:59 13° 271° (W) 12:04:00 437.425
nSIGHT-1 17 Oct 12:00:56 12:03:28 22° 143° (SE) 12:06:02 .
DUCHIFAT 1 17 Oct 12:08:45 12:12:58 72° 74° (ENE) 12:17:15 145.980
YUBILEINY 17 Oct 12:10:29 12:18:22 37° 295° (WNW) 12:26:19 435.215
NO-84 17 Oct 12:12:51 12:16:05 27° 225° (SW) 12:19:04 435.350 FM
M-CUBED/EXP-1 PRIME 17 Oct 12:20:50 12:23:14 18° 58° (ENE) 12:25:35 437.505
PCSat 17 Oct 12:23:47 12:27:52 21° 330° (NNW) 12:32:00 145.827
ISS 17 Oct 12:23:48 12:26:40 29° 146° (SE) 12:29:34 437.550
BUGSAT 1 17 Oct 12:31:56 12:35:47 37° 68° (ENE) 12:39:41 437.445
LO-87 17 Oct 12:46:10 12:49:49 70° 286° (WNW) 12:53:25 145.935 - 145.965
AO-7 17 Oct 12:49:23 12:54:19 18° 36° (NE) 12:59:15 .
Oscar 19 17 Oct 12:50:40 12:55:20 35° 64° (ENE) 13:00:01 437.125/150
Gurwin Techsat 1B 17 Oct 12:52:28 12:56:55 28° 61° (ENE) 13:01:23 435.225
BEESAT 3 17 Oct 12:58:18 13:00:54 17° 113° (ESE) 13:03:32 437.485
EO-79 17 Oct 13:01:24 13:05:05 28° 265° (W) 13:08:49 145.935-145.965
POLYITAN 1 17 Oct 13:05:09 13:08:46 26° 266° (W) 13:12:25 437.675
SO-50 17 Oct 13:07:10 13:09:03 12° 4° (N) 13:10:57 436.795
RS-15 17 Oct 13:08:21 13:16:30 23° 262° (W) 13:24:26 29.354- 29.394
Tancredo 1 17 Oct 13:11:00 13:12:51 38° 359° (N) 13:14:41 437.200
SPROUT 17 Oct 13:11:13 13:15:12 35° 97° (E) 13:19:09 437.525
ESTCUBE 1 17 Oct 13:21:08 13:25:31 55° 289° (WNW) 13:29:54 437.505/2401.250
QB50P2 17 Oct 13:26:24 13:29:02 16° 271° (W) 13:31:40 145.880/145.840
VELOX 1 17 Oct 13:27:13 13:31:19 35° 97° (E) 13:35:24 145.980
NANOSAT C BR1 17 Oct 13:33:29 13:36:09 16° 270° (W) 13:38:51 145.865
nSIGHT-1 17 Oct 13:36:15 13:39:27 89° 171° (S) 13:42:41 .
DUCHIFAT 1 17 Oct 13:46:59 13:49:09 14° 272° (W) 13:51:19 145.980
M-CUBED/EXP-1 PRIME 17 Oct 13:54:19 13:57:30 36° 255° (WSW) 14:00:36 437.505
ISS 17 Oct 13:59:42 14:02:58 78° 345° (NNW) 14:06:14 437.550
BUGSAT 1 17 Oct 14:07:43 14:11:14 25° 266° (W) 14:14:47 437.445
BEESAT 2 17 Oct 14:09:05 14:12:28 26° 117° (ESE) 14:15:54 435.950
PCSat 17 Oct 14:11:19 14:13:27 12° 357° (N) 14:15:35 145.827
50 SAT 17 Oct 14:22:25 14:25:34 38° 99° (E) 14:28:41 437.505
Oscar 19 17 Oct 14:29:50 14:34:38 38° 263° (W) 14:39:27 437.125/150
Gurwin Techsat 1B 17 Oct 14:31:26 14:36:37 52° 260° (W) 14:41:49 435.225
BEESAT 3 17 Oct 14:34:00 14:38:00 67° 312° (NW) 14:42:03 437.485
AO-7 17 Oct 14:37:23 14:45:19 53° 59° (ENE) 14:53:17 .
Tancredo 1 17 Oct 14:42:59 14:44:55 84° 25° (NNE) 14:46:49 437.200
DX 1 17 Oct 14:45:12 14:49:32 57° 101° (ESE) 14:53:50 434.975-435.025
SPROUT 17 Oct 14:47:17 14:50:59 28° 295° (WNW) 14:54:40 437.525
SO-50 17 Oct 14:47:33 14:51:09 22° 29° (NNE) 14:54:47 436.795
ITAMSAT 1 17 Oct 14:54:27 14:59:05 34° 63° (ENE) 15:03:46 435.822/435.867
AO-85 17 Oct 15:03:29 15:07:18 59° 125° (SE) 15:11:16 145.980
VELOX 1 17 Oct 15:03:50 15:07:41 29° 295° (WNW) 15:11:31 145.980
MOZHAYETS 4 17 Oct 15:04:42 15:05:49 11° 85° (E) 15:06:57
nSIGHT-1 17 Oct 15:12:44 15:15:54 55° 1° (N) 15:19:05 .
BEESAT 17 Oct 15:16:22 15:18:36 13° 87° (E) 15:20:50 436.000
UKube-1 17 Oct 15:17:00 15:21:21 77° 103° (ESE) 15:25:41 .
ISS 17 Oct 15:36:24 15:39:38 58° 5° (N) 15:42:53 437.550
BEESAT 2 17 Oct 15:46:09 15:50:02 44° 316° (NW) 15:53:58 435.950
50 SAT 17 Oct 15:55:30 15:57:37 16° 297° (WNW) 15:59:45 437.505
PCSat 17 Oct 15:55:38 15:59:10 17° 23° (NNE) 16:02:43 145.827
BEESAT 3 17 Oct 16:13:38 16:16:17 17° 333° (NNW) 16:18:56 437.485
Tancredo 1 17 Oct 16:15:34 16:16:32 13° 216° (SW) 16:17:30 437.200
DX 1 17 Oct 16:22:11 16:25:20 20° 300° (WNW) 16:28:29 434.975-435.025
SO-50 17 Oct 16:27:37 16:32:15 86° 53° (NE) 16:36:55 436.795
HO-68 17 Oct 16:28:44 16:30:54 12° 36° (NE) 16:33:05 435.675
AO-7 17 Oct 16:30:23 16:38:15 45° 261° (W) 16:46:08 .
ITAMSAT 1 17 Oct 16:33:37 16:38:29 40° 262° (W) 16:43:24 435.822/435.867
ITUPSAT 1 17 Oct 16:34:14 16:39:02 63° 102° (ESE) 16:43:46 437.325
MOZHAYETS 4 17 Oct 16:39:06 16:43:44 83° 104° (ESE) 16:48:18
CUTE-I 17 Oct 16:40:03 16:42:49 14° 52° (NE) 16:45:35 437.470
CUBESAT XI-V 17 Oct 16:41:12 16:44:52 23° 92° (E) 16:48:30 437.345
AO-85 17 Oct 16:44:45 16:48:01 24° 327° (NNW) 16:51:25 145.980
nSIGHT-1 17 Oct 16:49:06 16:52:19 80° 202° (SSW) 16:55:32 .
BEESAT 17 Oct 16:52:13 16:57:04 88° 285° (WNW) 17:01:51 436.000
UKube-1 17 Oct 16:54:20 16:56:49 15° 303° (WNW) 16:59:19 .
XW-2C 17 Oct 17:00:10 17:02:07 14° 60° (ENE) 17:04:03 145.795 - 145.815
DOVE 4 17 Oct 17:09:23 17:13:30 62° 73° (ENE) 17:17:48 437.250
ISS 17 Oct 17:12:56 17:16:11 64° 204° (SSW) 17:19:26 437.550
BEESAT 2 17 Oct 17:26:39 17:28:46 14° 339° (NNW) 17:30:53 435.950
PCSat 17 Oct 17:38:36 17:43:53 50° 47° (NE) 17:49:09 145.827
STARS 17 Oct 17:40:27 17:41:58 11° 87° (E) 17:43:29 437.465
LilacSat-2 17 Oct 17:43:58 17:47:32 38° 70° (ENE) 17:51:06 437.200
XW-2F 17 Oct 17:46:29 17:49:58 35° 69° (ENE) 17:53:26 145.980 - 146.000
KAITUO 1B 17 Oct 17:51:01 17:54:22 31° 68° (ENE) 17:57:42 145.475/437.950
XW-2D 17 Oct 17:55:45 17:59:26 49° 71° (ENE) 18:03:07 145.860 - 145.880
CUTE 1.7 + AOD 2 17 Oct 18:04:47 18:07:34 17° 61° (ENE) 18:10:22 437.475
XW-2B 17 Oct 18:08:58 18:12:45 66° 74° (ENE) 18:16:32 145.730 - 145.750
SO-50 17 Oct 18:09:23 18:12:07 16° 249° (WSW) 18:14:52 436.795
HO-68 17 Oct 18:10:13 18:16:44 40° 59° (ENE) 18:23:19 435.675
NUDT-PHONESAT 17 Oct 18:10:50 18:14:27 49° 72° (ENE) 18:18:03 437.300
ITUPSAT 1 17 Oct 18:12:53 18:16:26 21° 301° (WNW) 18:19:57 437.325
CUTE-I 17 Oct 18:16:41 18:21:58 72° 72° (ENE) 18:27:19 437.470
MOZHAYETS 4 17 Oct 18:17:36 18:20:17 16° 303° (WNW) 18:22:57
CUBESAT XI-V 17 Oct 18:18:03 18:22:28 47° 291° (WNW) 18:26:52 437.345
SEEDS 17 Oct 18:19:10 18:21:39 16° 60° (ENE) 18:24:08 437.485
YUBILEINY 17 Oct 18:23:25 18:25:11 11° 38° (NE) 18:26:57 435.215
nSIGHT-1 17 Oct 18:25:54 18:28:14 19° 219° (SW) 18:30:33 .
CUBEBUG 2 17 Oct 18:28:01 18:31:27 21° 60° (ENE) 18:34:57 437.445
AO-85 17 Oct 18:28:48 18:29:54 11° 351° (N) 18:31:00 145.980
BEESAT 17 Oct 18:31:27 18:34:09 15° 305° (NW) 18:36:50 436.000
KKS-1 17 Oct 18:31:45 18:36:16 79° 103° (ESE) 18:40:45 437.445
XW-2C 17 Oct 18:32:01 18:35:49 67° 258° (WSW) 18:39:37 145.795 - 145.815
DOVE 4 17 Oct 18:49:17 18:51:43 15° 272° (W) 18:54:12 437.250
ISS 17 Oct 18:50:19 18:52:11 14° 222° (SW) 18:54:02 437.550
AAUSAT CUBESAT 2 17 Oct 18:53:42 18:56:13 16° 60° (ENE) 18:58:43 437.432
ZACube-1 17 Oct 19:00:02 19:02:36 15° 58° (ENE) 19:05:11 437.345
XW-2A 17 Oct 19:06:13 19:08:56 22° 66° (ENE) 19:11:39 145.665 - 145.685
UWE-3 17 Oct 19:12:43 19:16:46 30° 65° (ENE) 19:20:52 435.000/436.395/437.385
STARS 17 Oct 19:14:29 19:18:58 90° 98° (E) 19:23:24 437.465
LilacSat-2 17 Oct 19:19:02 19:21:57 20° 267° (W) 19:24:52 437.200
XW-2F 17 Oct 19:21:13 19:24:11 21° 267° (W) 19:27:09 145.980 - 146.000
PCSat 17 Oct 19:22:17 19:27:08 34° 247° (WSW) 19:31:58 145.827
STRAND 1 17 Oct 19:23:01 19:25:52 15° 87° (E) 19:28:41 437.568
KAITUO 1B 17 Oct 19:25:20 19:28:23 23° 266° (W) 19:31:27 145.475/437.950
XW-2D 17 Oct 19:31:28 19:33:53 16° 270° (W) 19:36:18 145.860 - 145.880
BEESAT 3 17 Oct 19:32:47 19:34:46 13° 21° (NNE) 19:36:44 437.485
CUTE 1.7 + AOD 2 17 Oct 19:38:47 19:42:59 61° 259° (W) 19:47:12 437.475
Oscar 11 17 Oct 19:42:10 19:45:26 21° 62° (ENE) 19:48:42 .
XW-2B 17 Oct 19:45:46 19:47:22 12° 272° (W) 19:48:56 145.730 - 145.750
NUDT-PHONESAT 17 Oct 19:46:21 19:48:35 15° 270° (W) 19:50:50 437.300
SEEDS 17 Oct 19:52:41 19:56:51 69° 258° (WSW) 20:01:02 437.485
HO-68 17 Oct 19:57:21 20:04:19 53° 259° (W) 20:11:21 435.675
CUTE-I 17 Oct 19:58:53 20:02:35 19° 271° (W) 20:06:18 437.470
CUBEBUG 2 17 Oct 20:03:01 20:07:38 62° 259° (W) 20:12:22 437.445
KKS-1 17 Oct 20:09:35 20:12:15 16° 303° (WNW) 20:14:55 437.445
AO-85 17 Oct 20:10:12 20:12:10 13° 17° (NNE) 20:14:12 145.980
AO-73 17 Oct 20:13:50 20:18:19 56° 72° (ENE) 20:22:49 145.935
YUBILEINY 17 Oct 20:17:07 20:25:16 40° 66° (ENE) 20:33:24 435.215
AAUSAT CUBESAT 2 17 Oct 20:27:08 20:31:13 64° 259° (W) 20:35:18 437.432
ZACube-1 17 Oct 20:33:39 20:38:14 86° 257° (WSW) 20:42:53 437.345
XW-2A 17 Oct 20:38:31 20:41:31 28° 264° (W) 20:44:33 145.665 - 145.685
BEESAT 2 17 Oct 20:44:57 20:47:38 17° 27° (NNE) 20:50:18 435.950
UWE-3 17 Oct 20:48:48 20:53:07 38° 264° (W) 20:57:30 435.000/436.395/437.385
STARS 17 Oct 20:52:23 20:54:39 14° 304° (NW) 20:56:54 437.465
DELFI C3 17 Oct 20:52:33 20:55:39 23° 65° (ENE) 20:58:46 145.870
O/OREOS (USA 219) 17 Oct 20:53:10 20:55:45 15° 99° (E) 20:58:21 437.305
EO-88 17 Oct 20:54:11 20:55:58 13° 60° (ENE) 20:57:45 145.990 - 145.960
Max Valier Satellite 17 Oct 20:55:17 20:57:52 18° 63° (ENE) 21:00:27 145.860
STRAND 1 17 Oct 21:00:33 21:05:45 88° 287° (WNW) 21:10:55 437.568
BEESAT 3 17 Oct 21:09:28 21:13:19 43° 43° (NE) 21:17:06 437.485
Oscar 11 17 Oct 21:17:03 21:21:16 50° 261° (W) 21:25:30 .
FO-29 17 Oct 21:39:13 21:45:34 46° 98° (E) 21:52:36 435.910
TIGRISAT 17 Oct 21:45:37 21:47:17 12° 85° (E) 21:48:56 435.000
AO-85 17 Oct 21:49:47 21:53:48 34° 39° (NE) 21:58:05 145.980
AO-73 17 Oct 21:51:34 21:54:52 20° 270° (W) 21:58:13 145.935
ZACube-1 17 Oct 22:13:36 22:15:12 12° 275° (W) 22:16:49 437.345
YUBILEINY 17 Oct 22:13:57 22:22:28 58° 269° (W) 22:31:02 435.215
BEESAT 2 17 Oct 22:22:03 22:26:07 67° 49° (NE) 22:30:06 435.950
EO-88 17 Oct 22:25:31 22:29:09 64° 258° (WSW) 22:32:48 145.990 - 145.960
DELFI C3 17 Oct 22:26:37 22:30:14 36° 263° (W) 22:33:53 145.870
Max Valier Satellite 17 Oct 22:27:47 22:31:23 45° 261° (W) 22:35:00 145.860
O/OREOS (USA 219) 17 Oct 22:29:59 22:34:33 75° 298° (WNW) 22:39:10 437.305
STRAND 1 17 Oct 22:41:04 22:44:14 17° 305° (NW) 22:47:23 437.568
BEESAT 3 17 Oct 22:47:20 22:50:42 26° 243° (WSW) 22:53:59 437.485
ESTCUBE 1 17 Oct 22:48:24 22:52:17 29° 65° (ENE) 22:56:11 437.505/2401.250
UNISAT 6 17 Oct 23:04:15 23:08:56 68° 102° (ESE) 23:13:29 437.425
TIGRISAT 17 Oct 23:19:59 23:24:42 87° 101° (E) 23:29:17 435.000
RS-15 17 Oct 23:21:11 23:23:45 11° 88° (E) 23:26:18 29.354- 29.394
FO-29 17 Oct 23:24:31 23:30:34 43° 295° (WNW) 23:37:19 435.910
LO-87 17 Oct 23:25:36 23:29:12 88° 73° (ENE) 23:32:51 145.935 - 145.965
AO-85 17 Oct 23:30:02 23:34:21 46° 238° (WSW) 23:38:58 145.980
PRISM 17 Oct 23:34:06 23:38:11 60° 102° (ESE) 23:42:16 437.425
BEESAT 2 18 Oct 00:00:45 00:03:23 17° 247° (WSW) 00:06:00 435.950
SPROUT 18 Oct 00:08:09 00:12:14 45° 69° (ENE) 00:16:22 437.525
DX 1 18 Oct 00:11:28 00:13:19 13° 55° (NE) 00:15:11 434.975-435.025
O/OREOS (USA 219) 18 Oct 00:12:10 00:14:48 15° 320° (NW) 00:17:27 437.305
YUBILEINY 18 Oct 00:13:48 00:17:15 13° 292° (WNW) 00:20:42 435.215
ESTCUBE 1 18 Oct 00:24:50 00:29:00 36° 263° (W) 00:33:10 437.505/2401.250
VELOX 1 18 Oct 00:28:11 00:32:27 53° 70° (ENE) 00:36:44 145.980
AIST 2D 18 Oct 00:38:03 00:41:34 89° 115° (ESE) 00:45:02 435.315
EO-79 18 Oct 00:41:01 00:44:57 34° 96° (E) 00:48:50 145.935-145.965
UKube-1 18 Oct 00:41:24 00:43:59 16° 58° (ENE) 00:46:34 .
UNISAT 6 18 Oct 00:41:55 00:45:08 19° 301° (WNW) 00:48:18 437.425
POLYITAN 1 18 Oct 00:44:47 00:48:47 37° 97° (E) 00:52:44 437.675
50 SAT 18 Oct 00:55:07 00:57:54 26° 67° (ENE) 01:00:42 437.505
TIGRISAT 18 Oct 00:58:04 01:00:43 15° 304° (WNW) 01:03:20 435.000
QB50P2 18 Oct 01:04:39 01:08:56 65° 101° (E) 01:13:10 145.880/145.840
PRISM 18 Oct 01:10:22 01:13:03 17° 300° (WNW) 01:15:44 437.425
NANOSAT C BR1 18 Oct 01:11:14 01:15:29 62° 101° (ESE) 01:19:41 145.865
FO-29 18 Oct 01:12:49 01:14:13 11° 316° (NW) 01:15:39 435.910
RS-15 18 Oct 01:21:21 01:32:52 49° 112° (ESE) 01:44:20 29.354- 29.394
DUCHIFAT 1 18 Oct 01:23:48 01:28:05 73° 103° (ESE) 01:32:19 145.980
BUGSAT 1 18 Oct 01:44:18 01:48:12 34° 97° (E) 01:52:03 437.445
DX 1 18 Oct 01:44:28 01:48:48 85° 74° (ENE) 01:53:10 434.975-435.025
SPROUT 18 Oct 01:45:04 01:48:22 21° 268° (W) 01:51:40 437.525
VELOX 1 18 Oct 02:06:04 02:09:12 19° 269° (W) 02:12:22 145.980
ITUPSAT 1 18 Oct 02:09:03 02:12:25 19° 58° (ENE) 02:15:48 437.325
MOZHAYETS 4 18 Oct 02:09:27 02:12:42 19° 60° (ENE) 02:15:58
UKube-1 18 Oct 02:15:12 02:19:29 73° 257° (WSW) 02:23:49 .
EO-79 18 Oct 02:16:55 02:20:38 29° 295° (WNW) 02:24:17 145.935-145.965
POLYITAN 1 18 Oct 02:20:49 02:24:26 27° 296° (WNW) 02:28:00 437.675
BEESAT 18 Oct 02:25:59 02:29:55 26° 62° (ENE) 02:33:53 436.000
50 SAT 18 Oct 02:27:38 02:30:14 21° 265° (W) 02:32:50 437.505
Oscar 19 18 Oct 02:36:24 02:41:27 54° 101° (E) 02:46:27 437.125/150
QB50P2 18 Oct 02:41:29 02:44:16 17° 301° (WNW) 02:47:02 145.880/145.840
Gurwin Techsat 1B 18 Oct 02:43:02 02:48:08 45° 98° (E) 02:53:14 435.225
NANOSAT C BR1 18 Oct 02:47:55 02:50:46 18° 300° (WNW) 02:53:36 145.865
DUCHIFAT 1 18 Oct 03:00:43 03:03:13 15° 302° (WNW) 03:05:42 145.980
M-CUBED/EXP-1 PRIME 18 Oct 03:01:30 03:04:55 63° 108° (ESE) 03:08:32 437.505
BUGSAT 1 18 Oct 03:19:48 03:23:27 28° 295° (WNW) 03:27:05 437.445
DX 1 18 Oct 03:23:59 03:25:36 12° 273° (W) 03:27:14 434.975-435.025
RS-15 18 Oct 03:32:44 03:45:04 69° 318° (NW) 03:57:16 29.354- 29.394
MOZHAYETS 4 18 Oct 03:44:48 03:49:25 65° 258° (WSW) 03:54:03
ITUPSAT 1 18 Oct 03:44:57 03:49:45 70° 257° (WSW) 03:54:35 437.325
CUBESAT XI-V 18 Oct 03:48:14 03:52:28 37° 67° (ENE) 03:56:42 437.345
KKS-1 18 Oct 03:59:03 04:02:00 18° 58° (ENE) 04:04:58 437.445
BEESAT 18 Oct 04:02:50 04:07:28 48° 261° (W) 04:12:07 436.000
Oscar 19 18 Oct 04:16:17 04:20:28 26° 300° (WNW) 04:24:37 437.125/150
Gurwin Techsat 1B 18 Oct 04:23:17 04:27:57 32° 298° (WNW) 04:32:36 435.225
AO-7 18 Oct 04:26:16 04:34:17 50° 101° (E) 04:42:17 .
M-CUBED/EXP-1 PRIME 18 Oct 04:37:17 04:39:01 13° 305° (NW) 04:40:47 437.505
STARS 18 Oct 04:40:14 04:43:20 19° 59° (ENE) 04:46:27 437.465
ITAMSAT 1 18 Oct 04:41:31 04:46:38 51° 100° (E) 04:51:44 435.822/435.867
DOVE 4 18 Oct 05:04:11 05:06:54 15° 88° (E) 05:09:41 437.250
NO-84 18 Oct 05:06:42 05:10:46 43° 140° (SE) 05:14:43 435.350 FM
O/OREOS (USA 219) 18 Oct 05:18:36 05:20:44 13° 38° (NE) 05:22:51 437.305
CUBESAT XI-V 18 Oct 05:25:49 05:29:53 30° 265° (W) 05:33:58 437.345
KKS-1 18 Oct 05:33:40 05:38:05 67° 257° (WSW) 05:42:32 437.445
